Weather Roundup
Issued by NWS Chicago, IL

Home | Current Version | Previous Version | Text Only | Print | Product List | Glossary Off
Versions: 1 2 3 4 5 6 7 8 9 10 11 12 13 14 15 16 17 18 19 20 21 22 23 24 25 26 27 28 29 30 31 32 33 34 35 36 37 38 39 40 41 42 43 44 45 46 47 48 49 50

000
NZUS59 KLOT 280510
HRRLOT

CHICAGO AREA WEATHER ROUNDUP
NATIONAL WEATHER SERVICE CHICAGO/ROMEOVILLE IL
1200 AM CDT THU AUG 28 2014

NOTE: "FAIR" INDICATES FEW OR NO CLOUDS BELOW 12,000 FEET WITH NO
SIGNIFICANT WEATHER AND/OR OBSTRUCTIONS TO VISIBILITY.

* THESE STATIONS ARE NOT UNDER NWS QUALITY CONTROL. THEY ALSO MAY NOT
  REPORT WEATHER SUCH AS PRECIPITATION OR FOG.

ILZ005-006-012>014-019>023-280600-
NORTHEAST ILLINOIS

CITY           SKY/WX    TMP DP  RH WIND       PRES   REMARKS
OHARE          PTCLDY    68  59  73 NE7       30.13S
MIDWAY         PTCLDY    70  62  76 NE7       30.12S
AURORA         CLEAR     64  60  87 NE5       30.13F
LANSING*       CLEAR     65  60  82 CALM      30.13R
JOLIET*        PTCLDY    66  60  80 CALM      30.13S
WAUKEGAN       CLEAR     61  58  90 CALM      30.14R
DUPAGE AIRPORT CLEAR     63  60  90 N5        30.13S
WHEELING       CLEAR     67  61  81 N3        30.15R
KANKAKEE*      MOCLDY    64  61  90 CALM      30.13R
MORRIS*        CLEAR     65  65  99 CALM      30.13R
LEWIS AIRPORT* CLEAR     64  62  92 NE8       30.12F
NORTHERLY IS     N/A     69  59  70 NE13        N/A
$$

WIZ051-052-058>065-066-070>072-280600-
SOUTHEAST WISCONSIN

CITY           SKY/WX    TMP DP  RH WIND       PRES   REMARKS
MILWAUKEE      PTCLDY    64  56  75 E3        30.16R
KENOSHA*       CLEAR     61  58  90 N3        30.15S
RACINE*        CLEAR     65  57  75 E6        30.16S
BURLINGTON     CLEAR     57  57  99 CALM      30.15F
WAUKESHA       CLEAR     55  55 100 CALM      30.17S
WEST BEND      CLEAR     55  54  94 CALM      30.17S
$$

INZ001>003-010>013-019-020-280600-
NORTHWEST INDIANA

CITY           SKY/WX    TMP DP  RH WIND       PRES   REMARKS
GARY*          CLEAR     70  62  75 E5        30.13R
MICHIGAN CITY* NOT AVBL
RENSSELAER*    NOT AVBL
VALPARAISO     CLEAR     59  57  93 CALM      30.12F
$$

LMZ740>746-280600-
SOUTHERN LAKE MICHIGAN

STATION/POSITION TIME  SKY/WX   TEMP WIND        PRES    VSBY
                                AIR  DIR/SP/G
                 (UTC)          (F)  (DEG/KT/KT) (MB)    (MI)
HARRISON CRIB    0500            69   50/ 12/ 14   N/A
BURNHAM HARBOR   0500            69   50/ 10/ 12   N/A
CALUMET HARBOR   0500            70   40/  8/ 10 1018.9R
BURNS HARBOR     NOT AVBL
MICHIGAN CITY    0500            66   50/  9/ 12   N/A
$$

ABBREVIATIONS USED IN REMARKS
   TC - TEMPERATURE IN CELSIUS
  WCI - WIND CHILL INDEX
   HX - HEAT INDEX
  VSB - VISIBILITY
$$



USA.gov is the U.S. government's official web portal to all federal, state and local government web resources and services.